When you browse on this site, cookies collect data to enhance your experience and personalize the content and advertising you see.
Visit our Privacy Policy to learn more. By continuing to use the site, you agree to this use of cookies and data.
EN

Hourly Weather Ashtarak

Today, 10 July, Friday

Time Temperature Precipitation Wind Pressure Humidity
00:00 +20°C° 0 mm 2 mps 658 mmHg 66%
01:00 +20°C° 0.3 mm 2 mps 658 mmHg 68%
02:00 +19°C° 0.3 mm 2 mps 658 mmHg 69%
03:00 +19°C° 0.3 mm 2 mps 658 mmHg 71%
04:00 +19°C° 0.5 mm 2 mps 658 mmHg 71%
05:00 +20°C° 0.5 mm 2 mps 658 mmHg 71%
06:00 +21°C° 0.5 mm 1 mps 659 mmHg 71%
07:00 +21°C° 0.6 mm 2 mps 659 mmHg 68%
08:00 +23°C° 0.6 mm 2 mps 659 mmHg 65%
09:00 +24°C° 0.6 mm 2 mps 659 mmHg 62%
10:00 +26°C° 0.4 mm 2 mps 659 mmHg 57%
11:00 +27°C° 0.4 mm 2 mps 660 mmHg 51%
12:00 +28°C° 0.4 mm 2 mps 660 mmHg 46%
13:00 +29°C° 0.3 mm 2 mps 659 mmHg 45%
14:00 +29°C° 0.3 mm 2 mps 659 mmHg 43%
15:00 +30°C° 0.3 mm 2 mps 659 mmHg 41%
16:00 +29°C° 0.4 mm 2 mps 659 mmHg 45%
17:00 +29°C° 0.4 mm 2 mps 659 mmHg 48%
18:00 +28°C° 0.4 mm 2 mps 659 mmHg 51%
19:00 +26°C° 0.2 mm 2 mps 659 mmHg 56%
20:00 +24°C° 0.2 mm 2 mps 659 mmHg 61%
21:00 +21°C° 0.2 mm 3 mps 659 mmHg 66%
22:00 +21°C° 0.2 mm 2 mps 658 mmHg 68%
23:00 +20°C° 0.2 mm 2 mps 658 mmHg 71%

Tomorrow, 11 July, Saturday

Time Temperature Precipitation Wind Pressure Humidity
00:00 +19°C° 0.2 mm 2 mps 658 mmHg 73%
01:00 +19°C° 0.6 mm 2 mps 658 mmHg 74%
02:00 +19°C° 0.6 mm 2 mps 658 mmHg 76%
03:00 +18°C° 0.6 mm 2 mps 658 mmHg 78%
04:00 +19°C° 0.3 mm 2 mps 658 mmHg 77%
05:00 +19°C° 0.3 mm 2 mps 658 mmHg 76%
06:00 +21°C° 0.3 mm 1 mps 658 mmHg 76%
07:00 +22°C° 0.4 mm 1 mps 659 mmHg 71%
08:00 +23°C° 0.4 mm 1 mps 659 mmHg 65%
09:00 +25°C° 0.4 mm 1 mps 659 mmHg 60%
10:00 +26°C° 0.7 mm 1 mps 659 mmHg 56%
11:00 +27°C° 0.7 mm 1 mps 659 mmHg 52%
12:00 +28°C° 0.7 mm 1 mps 659 mmHg 48%
13:00 +29°C° 0.5 mm 2 mps 659 mmHg 47%
14:00 +29°C° 0.5 mm 2 mps 659 mmHg 46%
15:00 +30°C° 0.5 mm 2 mps 659 mmHg 45%
16:00 +29°C° 0.4 mm 3 mps 658 mmHg 48%
17:00 +28°C° 0.4 mm 3 mps 658 mmHg 50%
18:00 +27°C° 0.4 mm 3 mps 658 mmHg 53%
19:00 +26°C° 0.7 mm 3 mps 658 mmHg 60%
20:00 +24°C° 0.7 mm 3 mps 658 mmHg 66%
21:00 +21°C° 0.7 mm 3 mps 658 mmHg 72%
22:00 +21°C° 1.7 mm 2 mps 657 mmHg 75%
23:00 +20°C° 1.7 mm 2 mps 657 mmHg 77%

Day after tomorrow, 12 July, Sunday

Time Temperature Precipitation Wind Pressure Humidity
00:00 +20°C° 1.7 mm 2 mps 657 mmHg 80%
01:00 +21°C° 0.3 mm 1 mps 657 mmHg 80%
02:00 +21°C° 0.3 mm 1 mps 657 mmHg 79%
03:00 +21°C° 0.3 mm 1 mps 656 mmHg 79%
04:00 +21°C° 0 mm 1 mps 656 mmHg 78%
05:00 +21°C° 0 mm 1 mps 656 mmHg 76%
06:00 +21°C° 0 mm 1 mps 656 mmHg 75%
07:00 +22°C° 0.1 mm 1 mps 656 mmHg 71%
08:00 +24°C° 0.1 mm 1 mps 657 mmHg 66%
09:00 +25°C° 0.1 mm 1 mps 657 mmHg 61%
10:00 +26°C° 0.5 mm 2 mps 657 mmHg 58%
11:00 +27°C° 0.5 mm 2 mps 657 mmHg 54%
12:00 +28°C° 0.5 mm 2 mps 657 mmHg 50%
13:00 +29°C° 0.5 mm 2 mps 657 mmHg 48%
14:00 +29°C° 0.5 mm 2 mps 657 mmHg 45%
15:00 +30°C° 0.5 mm 2 mps 657 mmHg 43%
16:00 +30°C° 0.4 mm 2 mps 656 mmHg 45%
17:00 +29°C° 0.4 mm 2 mps 656 mmHg 47%
18:00 +29°C° 0.4 mm 2 mps 656 mmHg 49%
19:00 +27°C° 0.2 mm 3 mps 656 mmHg 53%
20:00 +25°C° 0.2 mm 3 mps 656 mmHg 57%
21:00 +23°C° 0.2 mm 4 mps 656 mmHg 61%
22:00 +22°C° 0.5 mm 3 mps 656 mmHg 64%
23:00 +21°C° 0.5 mm 3 mps 655 mmHg 68%

13 July, Monday

Time Temperature Precipitation Wind Pressure Humidity
00:00 +20°C° 0.5 mm 2 mps 655 mmHg 71%
01:00 +20°C° 0.4 mm 2 mps 655 mmHg 72%
02:00 +20°C° 0.4 mm 2 mps 654 mmHg 74%
03:00 +19°C° 0.4 mm 2 mps 654 mmHg 75%
04:00 +20°C° 0.4 mm 2 mps 654 mmHg 74%
05:00 +21°C° 0.4 mm 1 mps 654 mmHg 73%
06:00 +21°C° 0.4 mm 1 mps 654 mmHg 73%
07:00 +23°C° 0.4 mm 1 mps 654 mmHg 67%
08:00 +25°C° 0.4 mm 1 mps 654 mmHg 60%
09:00 +26°C° 0.4 mm 1 mps 655 mmHg 54%
10:00 +27°C° 0.5 mm 1 mps 655 mmHg 50%
11:00 +28°C° 0.5 mm 1 mps 655 mmHg 47%
12:00 +30°C° 0.5 mm 1 mps 655 mmHg 43%
13:00 +30°C° 0.2 mm 3 mps 655 mmHg 42%
14:00 +30°C° 0.2 mm 4 mps 655 mmHg 42%
15:00 +30°C° 0.2 mm 6 mps 655 mmHg 41%
16:00 +28°C° 0.7 mm 4 mps 654 mmHg 47%
17:00 +26°C° 0.7 mm 3 mps 654 mmHg 53%
18:00 +24°C° 0.7 mm 1 mps 654 mmHg 59%
19:00 +24°C° 0 mm 2 mps 654 mmHg 60%
20:00 +23°C° 0 mm 2 mps 655 mmHg 61%
21:00 +21°C° 0 mm 2 mps 655 mmHg 62%
22:00 +20°C° 0 mm 2 mps 655 mmHg 62%
23:00 +20°C° 0 mm 2 mps 655 mmHg 63%

14 July, Tuesday

Time Temperature Precipitation Wind Pressure Humidity
00:00 +19°C° 0 mm 2 mps 655 mmHg 64%
01:00 +19°C° 0 mm 2 mps 655 mmHg 63%
02:00 +20°C° 0 mm 1 mps 655 mmHg 63%
03:00 +19°C° 0 mm 1 mps 655 mmHg 63%
04:00 +20°C° 0 mm 1 mps 655 mmHg 63%
05:00 +20°C° 0 mm 1 mps 655 mmHg 63%
06:00 +21°C° 0 mm 1 mps 656 mmHg 63%
07:00 +23°C° 0 mm 1 mps 656 mmHg 57%
08:00 +24°C° 0 mm 1 mps 657 mmHg 52%
09:00 +26°C° 0 mm 1 mps 657 mmHg 47%
10:00 +27°C° 0.1 mm 1 mps 658 mmHg 45%
11:00 +28°C° 0.1 mm 1 mps 658 mmHg 42%
12:00 +29°C° 0.1 mm 2 mps 658 mmHg 40%
13:00 +30°C° 0.1 mm 2 mps 658 mmHg 37%
14:00 +31°C° 0.1 mm 2 mps 658 mmHg 35%
15:00 +31°C° 0.1 mm 2 mps 658 mmHg 33%
16:00 +30°C° 0.1 mm 2 mps 658 mmHg 37%
17:00 +30°C° 0.1 mm 3 mps 658 mmHg 41%
18:00 +29°C° 0.1 mm 4 mps 658 mmHg 45%
19:00 +27°C° 0 mm 4 mps 658 mmHg 50%
20:00 +25°C° 0 mm 4 mps 658 mmHg 55%
21:00 +22°C° 0 mm 4 mps 658 mmHg 60%
22:00 +22°C° 0 mm 3 mps 658 mmHg 59%
23:00 +21°C° 0 mm 2 mps 658 mmHg 59%

15 July, Wednesday

Time Temperature Precipitation Wind Pressure Humidity
00:00 +21°C° 0 mm 2 mps 658 mmHg 58%
01:00 +20°C° 0 mm 2 mps 658 mmHg 58%
02:00 +20°C° 0 mm 2 mps 658 mmHg 59%
03:00 +20°C° 0 mm 2 mps 658 mmHg 59%
04:00 +20°C° 0 mm 2 mps 658 mmHg 60%
05:00 +22°C° 0 mm 1 mps 658 mmHg 60%
06:00 +22°C° 0 mm 1 mps 659 mmHg 61%
07:00 +24°C° 0 mm 1 mps 659 mmHg 56%
08:00 +26°C° 0 mm 1 mps 659 mmHg 51%
09:00 +28°C° 0 mm 1 mps 659 mmHg 46%
10:00 +29°C° 0.1 mm 1 mps 659 mmHg 43%
11:00 +30°C° 0.1 mm 2 mps 659 mmHg 41%
12:00 +31°C° 0.1 mm 2 mps 659 mmHg 38%
13:00 +31°C° 0.1 mm 2 mps 659 mmHg 36%
14:00 +32°C° 0.1 mm 2 mps 659 mmHg 33%
15:00 +33°C° 0.1 mm 1 mps 659 mmHg 31%
16:00 +31°C° 0.2 mm 2 mps 659 mmHg 37%
17:00 +30°C° 0.2 mm 2 mps 658 mmHg 43%
18:00 +29°C° 0.2 mm 2 mps 658 mmHg 48%
19:00 +27°C° 0.3 mm 2 mps 658 mmHg 52%
20:00 +25°C° 0.3 mm 2 mps 658 mmHg 55%
21:00 +24°C° 0.3 mm 3 mps 658 mmHg 58%
22:00 +23°C° 1 mm 2 mps 658 mmHg 62%
23:00 +21°C° 1 mm 2 mps 658 mmHg 65%
Show more